Location: Newark
(12.4436°N, 0.6167°W)
Time: 11:48:29
(UTC+00:00)

Vanguard 1 - Pass Details

Date: 15 December 2019
Orbit: 650 x 3833 km, 34.2° (Epoch: 26 January)

Event Time Altitude Azimuth Distance (km) Brightness Sun altitude
Rises 21:47:53 0° 198° (SSW) 4,745 13.9 -57.4°
Reaches altitude 10° 21:51:20 10° 185° (S) 4,176 13.4 -58.1°
Enters shadow 21:52:09 12° 181° (S) 4,075 13.3 -58.3°
Maximum altitude 22:00:58 27° 131° (SE) 4,014 - -60.3°
Drops below altitude 10° 22:15:21 10° 82° (E) 6,394 - -63.4°
Sets 22:22:22 0° 73° (ENE) 7,763 - -64.9°
